Weather Roundup
Issued by NWS

Home | Current Version | Previous Version | Graphics & Text | Print | Product List | Glossary Off
Versions: 1 2 3 4 5 6 7 8 9 10 11 12 13 14 15 16 17 18 19 20 21 22 23 24 25 26 27 28 29 30 31 32 33 34 35 36 37 38 39 40 41 42 43 44 45 46 47 48 49 50

000
NZUS93 KARX 241559
HRRWXR

CURRENT HOURLY OBSERVATIONS ACROSS
MUCH OF THE UPPER MISSISSIPPI VALLEY
NATIONAL WEATHER SERVICE LA CROSSE WI
1100 AM CDT SUN SEP 24 2017


...SOUTHEAST MINNESOTA...


CITY           SKY/WX    TMP DP  RH WIND       PRES   REMARKS
ROCHESTER      SUNNY     82  64  54 S12       30.01S
ROCHESTER/MAYO FAIR      81  62  51 S13       30.00F
WINONA         SUNNY     82  61  47 S8        29.99F
AUSTIN         SUNNY     81  63  54 S8        29.99F
ALBERT LEA     SUNNY     84  66  54 S7        29.98S
DODGE CENTER   SUNNY     82  61  47 S14       29.99F
PRESTON        SUNNY     80  62  55 S9        30.02F
OWATONNA       SUNNY     82  66  57 S12       29.97S
FARIBAULT      SUNNY     82  66  57 S10       29.96F
$$

...ELSEWHERE IN MINNESOTA...


CITY           SKY/WX    TMP DP  RH WIND       PRES   REMARKS
MINNEAPOLIS    PTSUNNY   82  67  60 S16       29.94F
INTNL FALLS    CLOUDY    66  63  90 VRB6      29.85S
DULUTH         CLOUDY    72  66  81 S9        29.94F
RED WING       SUNNY     82  63  51 SE6       29.95F
REDWOOD FALLS  PTSUNNY   80  66  62 S15       29.88F
MANKATO        SUNNY     82  67  60 S10G17    29.94F
WORTHINGTON    MOSUNNY   80  66  62 S15       29.92F
FAIRMONT       SUNNY     82  66  58 S17G23    29.94F
$$

...SOUTHWEST WISCONSIN...


CITY           SKY/WX    TMP DP  RH WIND       PRES   REMARKS
LA CROSSE      SUNNY     83  64  52 S9        30.01S
PRAIRIE DU CHI SUNNY     81  63  54 CALM      30.02F
BOSCOBEL       SUNNY     86  65  49 CALM      30.03F
LONE ROCK      NOT AVBL
PLATTEVILLE    SUNNY     84  63  48 S10       30.07S
FORT MC COY    SUNNY     83  63  49 S7        30.03F
MAUSTON-NEW LI SUNNY     83  65  53 S8        30.04S
VIROQUA        FAIR      82  63  52 S9        30.05F
WIS DELLS      SUNNY     82  61  47 S9        30.07S
$$

...ELSEWHERE IN WISCONSIN...


CITY           SKY/WX    TMP DP  RH WIND       PRES   REMARKS
MILWAUKEE      SUNNY     88  65  46 VRB7      30.08F HX  90
MADISON        SUNNY     83  65  54 S13       30.07S
GREEN BAY      SUNNY     84  69  60 S8        30.07S
EAU CLAIRE     SUNNY     83  62  49 S14       29.99S
BLACK RVR FLS  FAIR      86  59  40 S5        30.01F
MEDFORD        SUNNY     79  63  58 S8        30.05F
WAUSAU         SUNNY     82  65  56 S6        30.04F
WIS RAPIDS     SUNNY     84  67  56 SW6       30.06S
MARSHFIELD     SUNNY     82  62  50 SW10      30.05S
RICE LAKE      SUNNY     81  64  56 S7        30.00F
$$

...NORTHEAST IOWA...


CITY           SKY/WX    TMP DP  RH WIND       PRES   REMARKS
WATERLOO       SUNNY     82  62  50 SE10      29.98F
DUBUQUE        SUNNY     80  64  58 S10       30.07R
DECORAH        SUNNY     82  63  51 S8        30.02S
MASON CITY     SUNNY     82  63  52 S10       30.00F
CHARLES CITY   SUNNY     82  64  54 S8        30.01S
OELWEIN        SUNNY     82  64  54 S10       30.03S
$$

...ELSEWHERE IN IOWA...


CITY           SKY/WX    TMP DP  RH WIND       PRES   REMARKS
DES MOINES     MOSUNNY   84  66  54 S9        29.97S
IOWA CITY      SUNNY     83  65  54 SE9       30.04F
FORT DODGE     SUNNY     84  66  54 S10       29.96F
MARSHALLTOWN   SUNNY     82  66  58 S10       29.99S
CEDAR RAPIDS   SUNNY     82  64  54 S8        30.02F
$$

...NORTHERN ILLINOIS...


CITY           SKY/WX    TMP DP  RH WIND       PRES   REMARKS
CHICAGO-OHARE  SUNNY     87  62  43 S10       30.09S
CHICAGO-MIDWAY SUNNY     86  63  45 SW5       30.09F
MOLINE         SUNNY     83  64  52 S8        30.05S
ROCKFORD       SUNNY     85  63  47 S10       30.10S
PEORIA         SUNNY     84  67  56 S8        30.08S
$$

NOTE: "FAIR" INDICATES FEW OR NO CLOUDS BELOW 12,000 FEET WITH NO
SIGNIFICANT WEATHER AND/OR OBSTRUCTIONS TO VISIBILITY. WIND
SPEEDS ARE IN MILES-PER-HOUR.




USA.gov is the U.S. government's official web portal to all federal, state and local government web resources and services.